[[{"header":{"parameterUnit":"m.s-1","parameterCategory":1,"la1":30.2991,"la2":30.254,"lo1":-89.0895,"lo2":-89.0444,"dy":0.0017,"dx":0.0017,"nx":28,"ny":28,"refTime":"2024-09-25T09:00:00:Z","depth":0,"parameterNumber":2,"parameterNumberName":"U-component_of_WINDS"},"data":[0,0,0,0,0,0,0,0,0,0,0,0,0,0,0,0,0,0,0,0,0,0,0,0,0,0,0,0,0,0,0,0,0,0,0,0,0,0,0,0,0,0,0,0,0,0,0,0,0,0,0,0,0,0,0,0,0,0,-1.6789,-1.6789,0,-1.6764,-1.6764,-1.6763,-1.6672,-1.667,-1.6668,-1.6666,-1.6645,-1.6646,-1.6648,0,0,0,0,0,0,0,0,0,0,0,0,0,-1.6766,-1.6766,-1.6789,-1.6789,-1.6788,-1.6764,-1.6764,-1.6763,-1.6673,-1.667,-1.6668,-1.6665,-1.6645,-1.6646,-1.6648,0,0,0,0,0,0,0,0,0,0,0,0,0,-1.6762,-1.6767,-1.6789,-1.674,-1.6735,-1.6764,-1.6764,-1.6763,-1.6673,-1.667,-1.6667,-1.6664,-1.6644,-1.6646,-1.6648,-1.6723,0,0,-1.6654,-1.6655,0,0,0,0,0,0,0,0,-1.6762,-1.6763,-1.6748,-1.6744,-1.6738,-1.6718,-1.6747,-1.675,-1.6674,-1.6697,-1.6666,-1.6662,-1.6672,-1.6672,-1.6674,-1.6722,-1.6721,-1.6655,-1.6656,-1.6657,-1.6657,0,0,0,0,0,0,0,-1.6763,-1.6763,-1.6779,-1.6748,-1.6742,-1.6722,-1.6718,-1.6748,-1.6703,-1.6695,-1.6688,-1.6686,-1.6669,-1.6672,-1.6673,-1.6721,-1.6654,-1.6656,-1.6658,-1.6658,-1.6835,-1.6838,0,0,0,0,0,0,-1.6769,-1.6764,-1.678,-1.6778,-1.6743,-1.6725,-1.672,-1.6728,-1.6702,-1.6695,-1.6689,-1.6682,-1.667,-1.667,-1.6672,-1.6761,-1.6657,-1.6659,-1.666,-1.6831,-1.6835,-1.6839,0,0,0,0,0,0,-1.6769,-1.6771,-1.6781,-1.677,-1.6769,-1.6728,-1.6738,-1.6729,-1.6732,-1.6697,-1.6689,-1.67,-1.6668,-1.6669,-1.6712,-1.6759,-1.6659,-1.6661,-1.6827,-1.6832,-1.6837,-1.6938,0,0,0,0,0,0,-1.6768,-1.6772,-1.6798,-1.6771,-1.677,-1.682,-1.674,-1.6731,-1.6735,-1.6726,-1.6706,-1.6699,-1.6665,-1.6709,-1.6714,-1.676,-1.6663,-1.6823,-1.6829,-1.6836,-1.693,-1.6946,-1.6959,0,0,0,0,0,-1.6768,-1.6827,-1.68,-1.6802,-1.6802,-1.6822,-1.6822,-1.6781,-1.6739,-1.6767,-1.6745,-1.67,-1.6753,-1.6714,-1.6719,-1.6766,-1.682,-1.6828,-1.6835,-1.6924,-1.6943,-1.6959,0,0,0,0,0,0,-1.6861,-1.6823,-1.6791,-1.6843,-1.6837,-1.6807,-1.684,-1.6802,-1.6808,-1.6799,-1.6749,-1.6745,-1.6796,-1.6785,-1.6743,-1.684,-1.6779,-1.6788,-1.6845,-1.6863,-1.6877,-1.6879,-1.6665,0,0,0,0,0,-1.6888,-1.6906,-1.6872,-1.6921,-1.6919,-1.6881,-1.6888,-1.6857,-1.6849,-1.6846,-1.6827,-1.6823,-1.6838,-1.685,-1.6862,-1.6928,-1.6925,-1.6963,-1.6978,-1.699,-1.6999,-1.7037,-1.7055,-1.6864,-1.6864,-1.6864,0,0,-1.6943,-1.6924,-1.6939,-1.694,-1.6931,-1.6953,-1.6879,-1.6905,-1.6922,-1.685,-1.689,-1.6877,-1.6868,-1.6925,-1.6948,-1.6917,-1.7051,-1.7,-1.701,-1.7012,-1.7047,-1.7065,-1.7081,-1.687,-1.6869,-1.6868,0,0,-1.7055,-1.7042,-1.7083,-1.7076,-1.7064,-1.7038,-1.7049,-1.7025,-1.7014,-1.7052,-1.7,-1.7021,-1.7048,-1.7046,-1.7048,-1.7164,-1.7124,-1.717,-1.7246,-1.7284,-1.7299,-1.7312,-1.7356,-1.7372,-1.7178,-1.7179,-1.7179,0,-1.7126,-1.7155,-1.7109,-1.7139,-1.7143,-1.7079,-1.7122,-1.7118,-1.7112,-1.7117,-1.7082,-1.7117,-1.7107,-1.7163,-1.7192,-1.7195,-1.7208,-1.7172,-1.73,-1.7312,-1.7324,-1.7366,-1.7382,-1.7184,-1.7184,-1.7183,-1.7183,0,-1.7244,-1.7266,-1.7301,-1.7296,-1.7304,-1.734,-1.7302,-1.7316,-1.7286,-1.7265,-1.7308,-1.7294,-1.7304,-1.7315,-1.7285,-1.7369,-1.735,-1.7308,-1.7246,-1.7349,-1.7387,-1.7402,-1.7193,-1.7191,-1.7189,-1.7188,0,0,-1.7413,-1.7384,-1.7397,-1.7396,-1.738,-1.7397,-1.7433,-1.7442,-1.7456,-1.7455,-1.7486,-1.7512,-1.7474,-1.7477,-1.7447,-1.748,-1.7577,-1.7435,-1.7434,-1.7464,-1.7672,-1.7705,-1.7723,-1.755,-1.7553,-1.7555,-1.7674,0,-1.7521,-1.7578,-1.754,-1.7605,-1.7627,-1.7568,-1.76,-1.7595,-1.7578,-1.7596,-1.7577,-1.7598,-1.7545,-1.7547,-1.7577,-1.7559,-1.7619,-1.755,-1.7581,-1.7583,-1.7586,-1.7743,-1.7776,-1.7888,-1.7688,-1.769,-1.7692,0,-1.7654,-1.7659,-1.7726,-1.7709,-1.7717,-1.7746,-1.7753,-1.777,-1.7765,-1.7751,-1.7756,-1.7719,-1.7756,-1.7695,-1.7747,-1.7702,-1.7713,-1.7706,-1.771,-1.7712,-1.7644,-1.7751,-1.7923,-1.794,-1.7715,-1.7713,-1.7711,0,-1.7774,-1.7797,-1.7841,-1.7841,-1.7821,-1.7844,-1.7837,-1.7829,-1.7838,-1.7846,-1.7852,-1.7864,-1.7871,-1.7883,-1.7851,-1.7809,-1.7909,-1.7845,-1.7901,-1.7902,-1.7924,-1.7924,-1.8102,-1.793,-1.7929,-1.7929,-1.7929,0,-1.79,-1.7944,-1.7895,-1.7922,-1.7971,-1.7928,-1.7978,-1.7965,-1.796,-1.7986,-1.7936,-1.7962,-1.7918,-1.7941,-1.7917,-1.7966,-1.7969,-1.796,-1.7953,-1.7965,-1.7967,-1.7972,-1.7964,-1.7934,-1.7933,-1.7932,-1.7931,0,-1.8041,-1.8009,-1.8054,-1.8032,-1.8028,-1.8066,-1.8048,-1.8075,-1.8055,-1.8089,-1.8094,-1.8064,-1.8089,-1.8058,-1.808,-1.8064,-1.8131,-1.8112,-1.8133,-1.8128,-1.8186,-1.8182,-1.8375,-1.84,-1.8211,-1.8213,-1.8214,0,-1.8124,-1.8156,-1.8139,-1.8152,-1.8148,-1.817,-1.818,-1.814,-1.8153,-1.8152,-1.8179,-1.8199,-1.8213,-1.8256,-1.8237,-1.8255,-1.8237,-1.8303,-1.8239,-1.8251,-1.824,-1.8239,-1.8244,-1.8317,-1.8319,-1.8321,-1.8322,0,-1.8275,-1.8259,-1.8273,-1.8285,-1.8297,-1.8304,-1.8308,-1.8322,-1.8281,-1.8298,-1.8322,-1.8333,-1.8356,-1.8378,-1.8391,-1.8387,-1.835,-1.8343,-1.8357,-1.837,-1.8381,-1.8378,-1.817,-1.8339,-1.8337,-1.8336,-1.8335,-1.8334,-1.8391,-1.8418,-1.8411,-1.8431,-1.8429,-1.8435,-1.8459,-1.8443,-1.8462,-1.8477,-1.8453,-1.8484,-1.8482,-1.8496,-1.8496,-1.8522,-1.8494,-1.8514,-1.8519,-1.8525,-1.8535,-1.8377,-1.8524,-1.8524,-1.8523,-1.8523,-1.8522,0,-1.8542,-1.8535,-1.8553,-1.856,-1.8576,-1.8538,-1.8541,-1.8558,-1.8586,-1.8587,-1.8602,-1.8632,-1.8654,-1.8638,-1.8658,-1.8682,-1.8665,-1.8688,-1.8687,-1.8687,-1.8558,-1.8544,-1.8701,-1.8701,-1.8701,-1.8701,-1.8701,-1.8701,-1.8622,-1.8668,-1.8651,-1.8698,-1.8691,-1.872,-1.8726,-1.8732,-1.8732,-1.8767,-1.8785,-1.8775,-1.877,-1.8789,-1.8809,-1.8804,-1.8814,-1.8844,-1.8834,-1.8713,-1.8696,-1.8679,-1.8666,-1.8846,-1.8846,-1.8961,-1.8962,-1.8963]},{"header":{"parameterUnit":"m.s-1","parameterCategory":1,"la1":30.2991,"la2":30.254,"lo1":-89.0895,"lo2":-89.0444,"dy":0.0017,"dx":0.0017,"nx":28,"ny":28,"refTime":"2024-09-25T09:00:00:Z","depth":0,"parameterNumber":3,"parameterNumberName":"V-component_of_WINDS"},"data":[0,0,0,0,0,0,0,0,0,0,0,0,0,0,0,0,0,0,0,0,0,0,0,0,0,0,0,0,0,0,0,0,0,0,0,0,0,0,0,0,0,0,0,0,0,0,0,0,0,0,0,0,0,0,0,0,0,0,1.3852,1.3853,0,1.3943,1.3944,1.3945,1.3989,1.3989,1.3989,1.3989,1.4081,1.4083,1.4085,0,0,0,0,0,0,0,0,0,0,0,0,0,1.3715,1.3718,1.3852,1.3853,1.3854,1.3942,1.3944,1.3945,1.3989,1.3989,1.3989,1.3989,1.408,1.4083,1.4086,0,0,0,0,0,0,0,0,0,0,0,0,0,1.3787,1.3718,1.3852,1.3887,1.3891,1.3942,1.3944,1.3945,1.3989,1.3989,1.3989,1.3989,1.4079,1.4082,1.4086,1.4109,0,0,1.4097,1.4099,0,0,0,0,0,0,0,0,1.3783,1.3792,1.388,1.3884,1.3889,1.3954,1.3929,1.4,1.3989,1.3951,1.3989,1.3989,1.4039,1.4046,1.4063,1.4114,1.4118,1.4098,1.41,1.4102,1.4103,0,0,0,0,0,0,0,1.3778,1.3788,1.3888,1.3882,1.3887,1.3897,1.3908,1.3943,1.3994,1.3955,1.3958,1.3968,1.4041,1.4059,1.4065,1.4119,1.4098,1.4101,1.4103,1.4105,1.4192,1.4192,0,0,0,0,0,0,1.3767,1.3784,1.3885,1.3891,1.3835,1.39,1.3911,1.3933,1.3994,1.4003,1.3968,1.397,1.4053,1.4061,1.4068,1.4099,1.4102,1.4105,1.4107,1.4192,1.4192,1.4192,0,0,0,0,0,0,1.3764,1.3776,1.3881,1.3838,1.3852,1.3902,1.3927,1.3935,1.3953,1.4004,1.4013,1.3977,1.4053,1.4063,1.4099,1.4103,1.4107,1.411,1.4192,1.4192,1.4192,1.4161,0,0,0,0,0,0,1.376,1.3775,1.3785,1.3838,1.3855,1.391,1.3927,1.3937,1.396,1.3963,1.4015,1.4024,1.4054,1.4093,1.4102,1.4108,1.4113,1.4192,1.4192,1.4192,1.4161,1.416,1.4158,0,0,0,0,0,1.3755,1.3772,1.3785,1.3797,1.3868,1.3911,1.392,1.3954,1.396,1.397,1.4002,1.4022,1.4101,1.4096,1.4107,1.4114,1.4192,1.4192,1.4192,1.4162,1.416,1.4158,0,0,0,0,0,0,1.3718,1.378,1.3795,1.383,1.3864,1.3918,1.3932,1.3951,1.3985,1.3987,1.4028,1.4039,1.407,1.4096,1.409,1.4139,1.4148,1.415,1.4121,1.412,1.4118,1.4111,1.4116,0,0,0,0,0,1.3714,1.3744,1.3796,1.3822,1.3838,1.3882,1.3902,1.3925,1.3963,1.3978,1.4013,1.4048,1.4081,1.4102,1.4135,1.4165,1.4176,1.4175,1.4173,1.4172,1.4173,1.419,1.419,1.4193,1.4193,1.4193,0,0,1.3706,1.3743,1.376,1.3815,1.3845,1.3874,1.3894,1.3925,1.3946,1.3982,1.4018,1.4044,1.4087,1.4119,1.4135,1.4141,1.4175,1.4172,1.417,1.4173,1.419,1.419,1.419,1.4193,1.4193,1.4193,0,0,1.3706,1.3737,1.3762,1.3791,1.3836,1.3864,1.387,1.392,1.3939,1.3975,1.4002,1.4029,1.4084,1.4113,1.4135,1.4144,1.4163,1.4153,1.4144,1.416,1.416,1.416,1.4163,1.4163,1.4155,1.4155,1.4155,0,1.369,1.3736,1.3772,1.3801,1.3824,1.3857,1.3881,1.3908,1.3961,1.3976,1.3982,1.4051,1.4082,1.4121,1.4123,1.414,1.4147,1.4148,1.4157,1.4158,1.4158,1.4161,1.4162,1.4153,1.4153,1.4153,1.4154,0,1.3714,1.3745,1.3759,1.3809,1.3834,1.386,1.3899,1.392,1.3941,1.3968,1.4004,1.4042,1.4082,1.4093,1.4114,1.4135,1.4137,1.4149,1.4159,1.4156,1.4159,1.416,1.4151,1.4151,1.4152,1.4152,0,0,1.3694,1.3763,1.3767,1.379,1.3841,1.3865,1.3892,1.3932,1.3949,1.3984,1.4007,1.4052,1.4064,1.4088,1.4112,1.4126,1.413,1.4137,1.4138,1.4134,1.4154,1.4145,1.4145,1.4142,1.4143,1.4143,1.415,0,1.3701,1.3752,1.3785,1.3822,1.3851,1.3882,1.3906,1.3939,1.3965,1.3992,1.4021,1.4052,1.4065,1.408,1.4095,1.4126,1.4134,1.4126,1.4164,1.4165,1.4153,1.4147,1.4138,1.4143,1.4152,1.4152,1.4153,0,1.3717,1.3751,1.3791,1.3837,1.3851,1.3871,1.391,1.3936,1.3973,1.3991,1.4018,1.4042,1.4071,1.4078,1.4118,1.4111,1.4128,1.4146,1.4147,1.4152,1.4159,1.4152,1.4146,1.4146,1.4155,1.4155,1.4155,0,1.3698,1.3753,1.3785,1.3803,1.3858,1.3872,1.3895,1.3933,1.3954,1.3987,1.4001,1.4037,1.4057,1.4084,1.4116,1.4118,1.4153,1.4162,1.4168,1.4167,1.4174,1.4173,1.417,1.4185,1.4185,1.4185,1.4185,0,1.3703,1.3726,1.3777,1.3796,1.3822,1.3859,1.3884,1.391,1.3943,1.3967,1.3996,1.4018,1.4059,1.4086,1.4112,1.414,1.4149,1.4164,1.417,1.4161,1.4159,1.4173,1.4174,1.4185,1.4185,1.4185,1.4185,0,1.3687,1.3722,1.3758,1.3806,1.3819,1.3836,1.3878,1.3897,1.3924,1.3954,1.3963,1.4005,1.4038,1.4073,1.4117,1.4134,1.4161,1.4171,1.4149,1.4152,1.4156,1.4155,1.4161,1.4164,1.4177,1.4177,1.4176,0,1.3688,1.3706,1.3757,1.3775,1.3797,1.3826,1.3848,1.3884,1.3905,1.3948,1.3962,1.3997,1.4027,1.4077,1.4111,1.4145,1.4155,1.4155,1.4161,1.4151,1.4155,1.4153,1.4155,1.4154,1.4153,1.4153,1.4153,0,1.3685,1.3701,1.3731,1.3767,1.3792,1.3822,1.3853,1.3866,1.3908,1.393,1.3963,1.3986,1.4031,1.4065,1.4103,1.4126,1.4146,1.4151,1.4154,1.4145,1.4131,1.4138,1.4144,1.4151,1.4151,1.4151,1.4151,1.4151,1.3678,1.3695,1.3733,1.3765,1.3792,1.382,1.384,1.3869,1.3898,1.3937,1.3956,1.3989,1.4025,1.4078,1.4101,1.4127,1.4133,1.4137,1.4138,1.4139,1.4136,1.4127,1.4134,1.4134,1.4134,1.4134,1.4134,0,1.3677,1.3702,1.3731,1.3773,1.3798,1.3814,1.3849,1.3869,1.3898,1.3929,1.3958,1.3996,1.4028,1.4064,1.4099,1.4112,1.4122,1.412,1.4119,1.4124,1.4129,1.4123,1.4111,1.4111,1.4111,1.4111,1.4111,1.4111,1.3679,1.3709,1.3729,1.3772,1.3798,1.383,1.3849,1.3874,1.3899,1.394,1.3967,1.3991,1.4024,1.406,1.4091,1.41,1.4111,1.4106,1.4119,1.4122,1.4124,1.4126,1.412,1.4109,1.4109,1.4112,1.4112,1.4112]}]]